Regional Weather Roundup
Issued by NWS Sterling, VA

Home | Current Version | Previous Version | Text Only | Print | Product List | Glossary On
Versions: 1 2 3 4 5 6 7 8 9 10 11 12 13 14 15 16 17 18 19 20 21 22 23 24 25 26 27 28
000
ASUS41 KLWX 171410
RWRLWX

REGIONAL WEATHER ROUNDUP
NATIONAL WEATHER SERVICE BALTIMORE MD/WASHINGTON DC
1000 AM EDT THU APR 17 2014

Note: "FAIR" indicates few or no clouds below 12,000 feet
with no significant weather and/or obstructions to visibility.
 TC=TEMPERATURE CELSIUS

 * =Non NWS site. Station does not report precipitation (e.g. rain,
    snow, etc.), thunder, or fog.

DCZ001-MDZ009-015-VAZ040>042-051-053>054-171500-
WASHINGTON METRO

CITY           SKY/WX    TMP DP  RH WIND       PRES   REMARKS
WASHINGTON NAT PTSUNNY   49  30  48 E8        30.67R
DULLES         MOSUNNY   45  28  51 E7        30.64S
ANDREWS AFB    MOSUNNY   47  32  56 E10       30.65R
FT BELVOIR     SUNNY     47  28  46 E8        30.66S
QUANTICO       PTSUNNY   47  31  53 SE10      30.67R
LEESBURG*      SUNNY     45  32  61 SE6       30.66R
MANASSAS*      SUNNY     46  34  61 SE7       30.65R
GAITHERSBURG*  SUNNY     45  25  45 E8        30.67R

$$

MDZ006>007-011-014-171500-
BALTIMORE METRO

CITY           SKY/WX    TMP DP  RH WIND       PRES   REMARKS
BWI AIRPORT    MOSUNNY   46  26  45 E14       30.66R
MD SCIENCE CTR   N/A     47  30  51 MISG      30.70S
MARTIN STATE   MOSUNNY   46  34  61 E14G20    30.69R
ANNAPOLIS      SUNNY     45  33  63 E10       30.67R
FORT MEADE*    SUNNY     46  28  49 E12       30.68S

$$

MDZ012-015-019>023-171500-
MARYLAND EASTERN SHORE

CITY           SKY/WX    TMP DP  RH WIND       PRES   REMARKS
OCEAN CITY     CLOUDY    46  32  58 E13G21    30.66R
SALISBURY      CLOUDY    46  31  55 E13       30.66R
BAY BRIDGE AP* MOSUNNY   46  32  57 E14       30.67S
CAMBRIDGE*     MOSUNNY   46  32  57 E10       30.66R
EASTON*        PTSUNNY   46  36  66 E13       30.70R

$$

MDZ017>025-171500-
SOUTHERN MARYLAND

CITY           SKY/WX    TMP DP  RH WIND       PRES   REMARKS
PATUXENT RIVER PTSUNNY   46  32  58 E13       30.65R
ST INIGOES     MOSUNNY   47  34  60 NE12G20   30.64R
LEONARDTOWN*   MOSUNNY   45  32  61 E9G17     30.66R

$$

MDZ003>005-171500-
NORTH CENTRAL MARYLAND

CITY           SKY/WX    TMP DP  RH WIND       PRES   REMARKS
FREDERICK*     SUNNY     46  30  53 E6        30.68S
HAGERSTOWN APT SUNNY     43  26  51 S12       30.63R
WESTMINSTER*   SUNNY     43  23  45 S7        30.64R

$$

MDZ501>502-171500-
WESTERN MARYLAND

CITY           SKY/WX    TMP DP  RH WIND       PRES   REMARKS
OAKLAND*       SUNNY     36  12  38 SE16G24   30.45R WCI  26
CUMBERLAND*    SUNNY     45  23  42 SE6       30.63S

$$

VAZ025>031-171500-
SHENANDOAH VALLEY

CITY           SKY/WX    TMP DP  RH WIND       PRES   REMARKS
WINCHESTER*    SUNNY     45  28  53 SE10G18   30.62R
STAUNTON*      SUNNY     41  23  49 NE3       30.60S

$$

WVZ021-048>050-054>055-171500-
EASTERN WEST VIRGINIA PANHANDLE

CITY           SKY/WX    TMP DP  RH WIND       PRES   REMARKS
MARTINSBURG    SUNNY     45  27  49 SE9       30.64R
PETERSBURG*    SUNNY     44  32  63 CALM      30.59S

$$

VAZ036>039-050-171500-
CENTRAL FOOTHILLS

CITY           SKY/WX    TMP DP  RH WIND       PRES   REMARKS
CHARLOTTESVILL SUNNY     45  27  49 E7        30.61S
CULPEPER*      SUNNY     48  28  46 CALM      30.65R

$$

VAZ055>057-171500-
NORTH AND CENTRAL PIEDMONT

CITY           SKY/WX    TMP DP  RH WIND       PRES   REMARKS
FREDERICKSBRG* SUNNY     48  30  49 E12       30.64R
STAFFORD*      SUNNY     47  33  56 SE9G17    30.69R

$$

NCZ024-NYZ072-PAZ021-071-VAZ022-071-171500-
OTHER REGIONAL OBSERVATIONS

CITY           SKY/WX    TMP DP  RH WIND       PRES   REMARKS
NEW YORK CITY  SUNNY     41  24  51 E8G18     30.75R
PHILADELPHIA   MOSUNNY   46  29  51 E9        30.71R
PITTSBURGH     CLOUDY    45  19  35 SE10      30.45S
ROANOKE        MOSUNNY   42  21  43 E6        30.60R
RICHMOND       PTSUNNY   49  31  49 NE12G20   30.61R
RALEIGH        PTSUNNY   46  30  53 NE13      30.56R

$$

ANZ530>537-171500-
MARINE OBSERVATIONS

STATION/POSITION TIME  TEMP    WIND        PRES
                       AIR SEA DIR/SP/G
                 (UTC) (F)     (DEG/KT/KT) (MB)
THOMAS PT LIGHT  1400   44 52   90/ 12/ 14 1039.0R
BALT KEY BRIDGE  1400   42      90/ 14/ 17 1038.6R
COVE POINT       1400   44     120/ 12/ 16 1037.9R
LEWISETTA        1400   45 51   90/ 15/ 17 1037.2S
SOLOMONS ISLAND  1400      51                N/A
PINEY POINT      1400           80/ 12/ 14   N/A

$$




USA.gov is the U.S. government's official web portal to all federal, state and local government web resources and services.